Location: Waco, TX
(31.5480°N, 97.1670°W)
Time: 22:06:26
(UTC-06:00)

ISS - Pass Details

Date: 17 February 2019
Orbit: 403 x 411 km, 51.6° (Epoch: 22 February)

Event Time Altitude Azimuth Distance (km) Brightness Sun altitude
Rises 09:09:00 0° 254° (WSW) 2,306 -0.4 22.9°
Reaches altitude 10° 09:11:24 10° 271° (W) 1,450 -1.4 23.3°
Maximum altitude 09:13:58 21° 323° (NW) 961 -2.3 23.8°
Drops below altitude 10° 09:16:32 10° 15° (NNE) 1,456 -1.1 24.2°
Sets 09:18:57 0° 32° (NNE) 2,319 0.0 24.7°
